This demonstration page uses our WeatherBlox Daily Observations layout. Learn more.

Left ArrowRight Arrow

Hourly Observations for October 16, 2021

Temp ( °F °C ) Dew Point ( °F °C ) Humidity (%) Winds ( mph kmh ) Pressure ( in mb ) Visibility ( mi km ) Precip ( " mm )
12:56 am 00:56 Clear 41 5 26 -3.3 55 55 W 8 13 30.25 1024 10 16 N/A
1:56 am 01:56 Clear 40 4.4 27 -2.8 60 60 WNW 9 15 30.26 1025 10 16 N/A
2:56 am 02:56 Clear 35 1.7 27 -2.8 72 72 WNW 10 17 30.27 1025 10 16 N/A
3:56 am 03:56 Clear 36 2.2 26 -3.3 67 67 NW 10 17 30.27 1025 10 16 N/A
4:56 am 04:56 Clear 37 2.8 27 -2.8 67 67 W 7 11 30.28 1025 10 16 N/A
5:56 am 05:56 Clear 37 2.8 26 -3.3 65 65 WSW 7 11 30.30 1026 10 16 N/A
6:56 am 06:56 Clear 36 2.2 26 -3.3 67 67 W 8 13 30.31 1027 10 16 N/A
7:56 am 07:56 Sunny 36 2.2 26 -3.3 67 67 W 3 6 30.32 1027 10 16 N/A
8:56 am 08:56 Sunny 37 2.8 29 -1.7 73 73 N N/A 30.33 1027 10 16 N/A
9:56 am 09:56 Sunny 44 6.7 29 -1.7 55 55 WSW 5 7 30.33 1027 10 16 N/A
10:56 am 10:56 Sunny 52 11.1 29 -1.7 41 41 W 12 19 30.32 1027 10 16 N/A
11:56 am 11:56 Sunny 57 13.9 32 undefined 39 39 W 10 17 30.30 1026 10 16 N/A
12:56 pm 12:56 Sunny 60 15.6 31 -0.6 33 33 WNW 12 19 30.29 1026 10 16 N/A
1:56 pm 13:56 Sunny 63 17.2 31 -0.6 30 30 WNW 9 15 30.27 1025 10 16 N/A
2:56 pm 14:56 Sunny 65 18.3 31 -0.6 28 28 W 6 9 30.25 1024 10 16 N/A
3:56 pm 15:56 Sunny 67 19.4 32 undefined 27 27 WNW 7 11 30.24 1024 10 16 N/A
4:56 pm 16:56 Sunny 66 18.9 32 undefined 28 28 WNW 10 17 30.23 1024 10 16 N/A
5:56 pm 17:56 Sunny 65 18.3 33 0.6 31 31 W 8 13 30.24 1024 10 16 N/A
6:56 pm 18:56 Clear 59 15 33 0.6 38 38 SSW 7 11 30.24 1024 10 16 N/A
7:56 pm 19:56 Clear 54 12.2 34 1.1 47 47 SSW 7 11 30.26 1025 10 16 N/A
8:56 pm 20:56 Clear 52 11.1 35 1.7 53 53 SW 6 9 30.26 1025 10 16 N/A
9:56 pm 21:56 Clear 50 10 35 1.7 57 57 SSW 8 13 30.26 1025 10 16 N/A
10:56 pm 22:56 Clear 50 10 34 1.1 54 54 SW 7 11 30.25 1024 10 16 N/A
11:56 pm 23:56 Clear 45 7.2 34 1.1 66 66 N N/A 30.24 1024 10 16 N/A

Powered by AerisWeather